DL7GAI-7 Weather Reports


Display with metric or nautical units.
time (UTC)temp
F
wind
direction
speed
MPH
gust
MPH
rain 1hr
in
rain 24hr
in
rain mn
in
humidity
%
barometer
mb
20260904064823 59 45 2.0 4.0 0.00 0.00 0.00 86 1021.5
20260904063511 57 0 2.0 4.0 0.00 0.00 0.00 92 1021.7
20260904062157 57 0 2.0 4.0 0.00 0.00 0.00 92 1021.7
20260904060807 57 0 2.0 4.0 0.00 0.00 0.00 92 1021.7
20260904055402 56 45 3.0 4.0 0.00 0.00 0.00 93 1021.9
20260904054042 56 45 3.0 4.0 0.00 0.00 0.00 93 1021.9
20260904052752 56 0 2.0 4.0 0.00 0.00 0.00 91 1022.2
20260904051402 56 0 2.0 4.0 0.00 0.00 0.00 91 1022.2
20260904050027 57 45 2.0 6.0 0.00 0.00 0.00 88 1022.1
20260904044702 57 45 2.0 6.0 0.00 0.00 0.00 88 1022.1
20260904043332 58 0 3.0 6.0 0.00 0.00 0.00 87 1022.1
20260904042007 58 0 3.0 6.0 0.00 0.00 0.00 87 1022.1
20260904040552 58 315 3.0 5.0 0.00 0.00 0.00 86 1022.2
20260904035135 58 315 3.0 5.0 0.00 0.00 0.00 86 1022.2
20260904033923 58 315 3.0 5.0 0.00 0.00 0.00 86 1022.2
20260904032642 60 0 2.0 4.0 0.00 0.00 0.00 84 1022.3
20260904031202 60 0 2.0 4.0 0.00 0.00 0.00 84 1022.3
20260904025732 61 90 2.0 3.0 0.00 0.00 0.00 81 1022.2
20260904024242 61 90 2.0 3.0 0.00 0.00 0.00 81 1022.2
20260904022922 62 0 2.0 2.0 0.00 0.00 0.00 78 1022.4
20260904021622 62 0 2.0 2.0 0.00 0.00 0.00 78 1022.4
20260904020317 61 0 2.0 4.0 0.00 0.00 0.00 82 1022.6
20260904015002 61 0 2.0 4.0 0.00 0.00 0.00 82 1022.6
20260904013617 61 0 2.0 4.0 0.00 0.00 0.00 82 1022.6
20260904012202 60 45 2.0 4.0 0.00 0.00 0.00 83 1022.8
20260904010930 60 45 2.0 4.0 0.00 0.00 0.00 83 1022.8
20260904005527 60 45 3.0 5.0 0.00 0.00 0.00 79 1022.8
20260904004202 60 45 3.0 5.0 0.00 0.00 0.00 79 1022.8
20260904002817 62 45 2.0 5.0 0.00 0.00 0.00 74 1022.8
20260904001532 62 45 2.0 5.0 0.00 0.00 0.00 74 1022.8
20260904000142 61 45 4.0 5.0 0.00 0.00 0.00 77 1023.0
20260903234807 61 45 4.0 5.0 0.00 0.00 0.00 77 1023.0
20260903233512 62 0 2.0 3.0 0.00 0.00 0.00 74 1022.9
20260903232152 62 0 2.0 3.0 0.00 0.00 0.00 74 1022.9
20260903230752 62 0 2.0 3.0 0.00 0.00 0.00 74 1022.9
20260903225402 63 45 2.0 5.0 0.00 0.00 0.00 69 1022.9
20260903224007 63 45 2.0 5.0 0.00 0.00 0.00 69 1022.9
20260903222742 63 90 4.0 5.0 0.00 0.00 0.00 74 1022.7
20260903221407 63 90 4.0 5.0 0.00 0.00 0.00 74 1022.7
20260903220027 65 315 4.0 7.0 0.00 0.00 0.00 66 1022.4
20260903214627 65 315 4.0 7.0 0.00 0.00 0.00 66 1022.4
20260903213347 67 315 5.0 7.0 0.00 0.00 0.00 62 1022.2
20260903211937 67 315 5.0 7.0 0.00 0.00 0.00 62 1022.2
20260903210702 67 315 5.0 7.0 0.00 0.00 0.00 62 1022.2
20260903205306 66 315 5.0 6.0 0.00 0.00 0.00 65 1022.0
20260903203902 66 315 5.0 6.0 0.00 0.00 0.00 65 1022.0
20260903202649 69 315 3.0 4.0 0.00 0.00 0.00 60 1021.5
20260903201407 69 315 3.0 4.0 0.00 0.00 0.00 60 1021.5
20260903195917 69 45 2.0 3.0 0.00 0.00 0.00 63 1021.3
20260903194542 69 45 2.0 3.0 0.00 0.00 0.00 63 1021.3
20260903193212 69 0 1.0 2.0 0.00 0.00 0.00 66 1021.0
20260903191932 69 0 1.0 2.0 0.00 0.00 0.00 66 1021.0
20260903190642 69 0 1.0 2.0 0.00 0.00 0.00 66 1021.0
20260903185252 72 270 2.0 9.0 0.00 0.00 0.00 56 1020.3
20260903183947 72 270 2.0 9.0 0.00 0.00 0.00 56 1020.3
20260903182637 76 270 3.0 9.0 0.00 0.00 0.00 46 1020.1
20260903181332 76 270 3.0 9.0 0.00 0.00 0.00 46 1020.1
20260903180030 77 270 3.0 11.0 0.00 0.00 0.00 44 1020.0
20260903174747 77 270 3.0 11.0 0.00 0.00 0.00 44 1020.0
20260903173337 78 270 4.0 11.0 0.00 0.00 0.00 42 1019.9
20260903172042 78 270 4.0 11.0 0.00 0.00 0.00 42 1019.9
20260903170622 78 270 4.0 11.0 0.00 0.00 0.00 42 1019.9
20260903165150 78 270 6.0 17.0 0.00 0.00 0.00 41 1019.9
20260903163930 78 270 6.0 17.0 0.00 0.00 0.00 41 1019.9
20260903162622 78 270 9.0 17.0 0.00 0.00 0.00 39 1020.0
20260903161352 78 270 9.0 17.0 0.00 0.00 0.00 39 1020.0
20260903160127 79 225 9.0 17.0 0.00 0.00 0.00 38 1020.0
20260903154812 79 225 9.0 17.0 0.00 0.00 0.00 38 1020.0
20260903153405 79 270 9.0 17.0 0.00 0.00 0.00 34 1020.3
20260903151912 79 270 9.0 17.0 0.00 0.00 0.00 34 1020.3
20260903150457 79 270 10.0 18.0 0.00 0.00 0.00 31 1020.2
20260903145217 79 270 10.0 18.0 0.00 0.00 0.00 31 1020.2
20260903143807 79 270 10.0 18.0 0.00 0.00 0.00 31 1020.2
20260903142352 80 270 11.0 16.0 0.00 0.00 0.00 29 1020.3
20260903141017 80 270 11.0 16.0 0.00 0.00 0.00 29 1020.3
20260903135757 78 270 9.0 19.0 0.00 0.00 0.00 33 1020.6
20260903134547 78 270 9.0 19.0 0.00 0.00 0.00 33 1020.6
20260903133232 77 270 12.0 19.0 0.00 0.00 0.00 35 1020.9
20260903131900 77 270 12.0 19.0 0.00 0.00 0.00 35 1020.9
20260903130547 78 270 12.0 19.0 0.00 0.00 0.00 39 1021.2
20260903125322 78 270 12.0 19.0 0.00 0.00 0.00 39 1021.2
20260903123907 78 270 12.0 19.0 0.00 0.00 0.00 39 1021.2
20260903122550 76 270 11.0 19.0 0.00 0.00 0.00 45 1021.5
20260903121052 76 270 11.0 19.0 0.00 0.00 0.00 45 1021.5
20260903115742 76 270 11.0 17.0 0.00 0.00 0.00 45 1021.6
20260903114302 76 270 11.0 17.0 0.00 0.00 0.00 45 1021.6
20260903112907 74 315 9.0 14.0 0.00 0.00 0.00 49 1021.9
20260903111422 74 315 9.0 14.0 0.00 0.00 0.00 49 1021.9
20260903110052 74 270 7.0 14.0 0.00 0.00 0.00 52 1022.2
20260903104732 74 270 7.0 14.0 0.00 0.00 0.00 52 1022.2
20260903103347 71 270 8.0 14.0 0.00 0.00 0.00 57 1022.6
20260903102007 71 270 8.0 14.0 0.00 0.00 0.00 57 1022.6
20260903100617 71 270 8.0 14.0 0.00 0.00 0.00 57 1022.6
20260903095217 70 270 5.0 10.0 0.00 0.00 0.00 60 1022.6
20260903093912 70 270 5.0 10.0 0.00 0.00 0.00 60 1022.6
20260903092547 69 270 3.0 6.0 0.00 0.00 0.00 64 1022.9
20260903091142 69 270 3.0 6.0 0.00 0.00 0.00 64 1022.9
20260903085902 67 270 2.0 6.0 0.00 0.00 0.00 65 1022.6
20260903084517 67 270 2.0 6.0 0.00 0.00 0.00 65 1022.6
20260903083144 65 270 3.0 6.0 0.00 0.00 0.00 69 1023.1
20260903081812 65 270 3.0 6.0 0.00 0.00 0.00 69 1023.1
20260903080449 63 270 4.0 7.0 0.00 0.00 0.00 71 1023.6
20260903075022 63 270 4.0 7.0 0.00 0.00 0.00 71 1023.6
20260903073627 63 270 4.0 7.0 0.00 0.00 0.00 71 1023.6
20260903072322 61 315 3.0 5.0 0.00 0.00 0.00 76 1023.7
20260903071018 61 315 3.0 5.0 0.00 0.00 0.00 76 1023.7
20260903065722 57 315 2.0 4.0 0.00 0.00 0.00 89 1023.8